カタログに戻る

SBIRS GEO 1

USA 230

運用中軍事GEO
NORAD 37481·PAYLOAD·🇺🇸 United States

打ち上げ May 7, 2011 から Cape Canaveral Space Force Station

Loading…

TLE

最新Source: Space-Track

元期: Sep 14, 2026, 14:02 UTC

1 37481U 11019A   26257.58541439  .00000093  00000-0  00000-0 0  9998
2 37481   4.7308  52.9911 0001754 128.2931  74.8450  1.00272521 56297

AllMySatでSBIRS GEO 1をリアルタイム追跡

Download on the App Store